Regional Weather Roundup
Issued by NWS Goodland, KS

Home | Current Version | Previous Version | Text Only | Print | Product List | Glossary On
Versions: 1 2 3 4 5 6 7 8 9 10 11 12 13 14 15 16 17 18 19 20 21 22 23 24 25 26 27 28 29 30 31 32 33 34 35 36 37 38 39 40 41 42 43 44 45 46 47 48 49 50
000
ASUS43 KGLD 030859
RWRGLD

GOODLAND FORECAST AREA HOURLY WEATHER ROUNDUP
NATIONAL WEATHER SERVICE GOODLAND KS
300 AM MDT SUN MAY 03 2015

...OFFICIAL OBSERVATIONS...

CITY           SKY/WX    TMP DP  RH WIND       PRES   REMARKS
GOODLAND KS    MOCLDY    56  45  66 W14       29.82S
HILL CITY KS   CLOUDY    63  48  58 NW6       29.75F
IMPERIAL NEB   PTCLDY    54  42  64 W8        29.79F
MCCOOK NEB     MOCLDY    58  45  62 W5        29.77R
AKRON CO       CLEAR     53  43  68 SW15      29.88F
BURLINGTON CO  PTCLDY    52  43  71 W10       29.86F
LIMON CO       PTCLDY    39  37  92 N7        29.94F
$$

...UNOFFICIAL OBSERVATIONS...

CITY           SKY/WX    TMP DP  RH WIND       PRES   REMARKS
COLBY KS       CLEAR     57  48  72 W6        29.80S
GOVE KS          N/A     65  32  29 MISG        N/A
LENORA KS        N/A     63  32  31 MISG        N/A
NORTON KS      CLEAR     55  45  67 W6        29.75S
SHARON SPRINGS   N/A     59  46  63 MISG        N/A
KIT CARSON CO    N/A     50  44  80 MISG        N/A
YUMA CO          N/A     48  42  80 NW5         N/A
$$



USA.gov is the U.S. government's official web portal to all federal, state and local government web resources and services.